Regional Weather Roundup
Issued by NWS

Home | Current Version | Previous Version | Text Only | Print | Product List | Glossary Off
Versions: 1 2 3 4 5 6 7 8 9 10 11 12 13 14 15 16 17 18 19 20 21 22 23 24 25 26 27 28 29 30 31 32 33 34 35 36 37 38 39 40 41 42 43 44 45 46 47 48 49 50

965
ASUS43 KDMX 121003
RWRIA

WEATHER ROUNDUP FOR IOWA
NATIONAL WEATHER SERVICE DES MOINES IA
400 AM CST FRI FEB 12 2016

NOTE: "FAIR" INDICATES FEW OR NO CLOUDS BELOW 12,000 FEET WITH NO
SIGNIFICANT WEATHER AND/OR OBSTRUCTIONS TO VISIBILITY.

* - THESE STATIONS ARE NOT NWS STATIONS...THUS NOT UNDER NWS
QUALITY CONTROL.  THEY ALSO DO NOT REPORT WEATHER SUCH
AS PRECIPITATION OR FOG.

IAZ001>003-012>014-020>022-031>034-043>046-121100-
   NORTHWEST IOWA

CITY           SKY/WX    TMP DP  RH WIND       PRES   REMARKS
CARROLL *      CLOUDY    18  14  86 NW17      30.26R WCI   2
CHEROKEE *     CLOUDY    17  16  95 NW8       30.28R WCI   7
DENISON *      CLOUDY    16  14  93 NW12      30.26R WCI   3
LE MARS *      CLOUDY    18  18 100 NW8       30.31R WCI   7
ORANGE CITY *  CLOUDY    18  18 100 N9        30.27R WCI   6
SHELDON *      CLOUDY    14  14 100 W9        30.26R WCI   2
SIOUX CITY     CLOUDY    19  14  81 N9        30.31F WCI   8
SPENCER        MOCLDY    12   7  80 NW8       30.26R WCI   0
STORM LAKE *   FLURRIES  16  16 100 NW13      30.24S WCI   2
$$

IAZ055>058-069>071-079>083-090>094-121100-
   SOUTHWEST IOWA

CITY           SKY/WX    TMP DP  RH WIND       PRES   REMARKS
ATLANTIC *     CLOUDY    23  19  86 NW10      30.26R WCI  12
AUDUBON *      CLOUDY    19  16  86 NW12G17   30.25R WCI   7
CLARINDA *     CLOUDY    27  21  80 NW7       30.28R WCI  19
COUNCIL BLFS * CLOUDY    23  21  93 NW14      30.26R WCI  11
CRESTON *      CLOUDY    21  19  93 NW7       30.24R WCI  13
HARLAN  *      CLOUDY    21  19  93 NW13      30.31R WCI   9
LAMONI         CLOUDY    22  18  85 W6        30.22R WCI  14
RED OAK *      CLOUDY    25  21  86 NW9G15    30.27R WCI  15
SHENANDOAH *   CLOUDY    27  25  93 NW8       30.28R WCI  18
$$

IAZ047>049-059>061-072>074-084-121100-
   CENTRAL IOWA

CITY           SKY/WX    TMP DP  RH WIND       PRES   REMARKS
AMES           CLOUDY    18  15  88 NW10      30.23R WCI   6
ANKENY *       CLOUDY    19  18  93 NW9       30.24R WCI   9
BOONE *        CLOUDY    18  14  86 NW9       30.22R WCI   6
CHARITON *     CLOUDY    21  18  86 W5        30.21R WCI  15
DES MOINES     FLURRIES  20  16  84 NW8       30.23R WCI  10
GRINNELL*      CLOUDY    19  18  93 W5        30.21S WCI  13
KNOXVILLE *    CLOUDY    19  16  86 W7        30.21R WCI  10
MARSHALLTOWN   CLOUDY    18  14  84 W12       30.21S WCI   5
NEWTON *       CLOUDY    19  19 100 W7        30.21S WCI  10
PELLA *        MOCLDY    19  17  92 NW3       30.23S
$$

IAZ004>006-015-016-023>025-035-036-121100-
   NORTH CENTRAL IOWA

CITY           SKY/WX    TMP DP  RH WIND       PRES   REMARKS
ALGONA *       FLURRIES  16  14  93 NW13      30.21S WCI   2
CLARION *      CLOUDY    16  12  86 NW12      30.22R WCI   3
ESTHERVILLE    CLOUDY    15  11  83 NW20      30.24R WCI  -2
FORT DODGE *   CLOUDY    16  10  79 NW5       30.24R WCI   9
MASON CITY     FLURRIES  14  11  87 W10       30.21S WCI   1
FOREST CITY *  FLURRIES  16  12  86 NW10      30.21R WCI   3
WEBSTER CITY * CLOUDY    16  14  93 NW14      30.21R WCI   1
IOWA FALLS *   CLOUDY    18  14  86 NW14      30.21S WCI   4
$$

IAZ007>011-017>019-026>030-037>042-050>054-066-121100-
   NORTHEAST IOWA

CITY           SKY/WX    TMP DP  RH WIND       PRES   REMARKS
CEDAR RAPIDS   CLOUDY    19  17  92 W10       30.18F WCI   7
CHARLES CITY * CLOUDY    14  12  92 W9        30.19F WCI   2
CLINTON *      CLOUDY    16  12  84 W5        30.19F WCI   9
DECORAH *      FLURRIES  12   9  85 NW7       30.16R WCI   2
DUBUQUE        CLOUDY    16   8  71 W8        30.15F WCI   5
MONTICELLO *   CLOUDY    18  10  73 NW8       30.19S WCI   7
OELWEIN *      CLOUDY    14  10  85 W9        30.18F WCI   2
WATERLOO       CLOUDY    15  10  80 NW7       30.21S WCI   5
$$

IAZ064-065-067-068-078-121100-
   EAST CENTRAL IOWA

CITY           SKY/WX    TMP DP  RH WIND       PRES   REMARKS
DAVENPORT      CLOUDY    20  15  81 W8        30.19F WCI  10
IOWA CITY      CLOUDY    20  17  88 W8        30.22F WCI  10
MT. PLEASANT * CLOUDY    23  19  87 W5        30.21F WCI  16
MUSCATINE *    CLOUDY    21  18  86 W5        30.22F WCI  15
QUAD CITIES    CLOUDY    21  15  78 W7        30.19F WCI  12
$$

IAZ062-063-075>077-085>089-095>099-121100-
   SOUTHEAST IOWA

CITY           SKY/WX    TMP DP  RH WIND       PRES   REMARKS
BURLINGTON     CLOUDY    21  18  88 W5        30.20F WCI  15
FAIRFIELD *    CLOUDY    19  18  93 W6        30.21S WCI  11
FORT MADISON * CLOUDY    19  18  93 CALM      30.22S
KEOKUK *       FLURRIES  19  18  93 CALM      30.21F
OSKALOOSA *    CLOUDY    19  18  93 W7        30.22R WCI  10
OTTUMWA        CLOUDY    19  18  95 W3        30.21S
WASHINGTON *   CLOUDY    21  19  93 W8        30.22S WCI  12
$$

ABBREVIATIONS USED IN REMARKS
   TC - TEMPERATURES IN CELSIUS
  WCI - WIND CHILL INDEX
   HX - HEAT INDEX
  VSB - VISIBILITY
$$





USA.gov is the U.S. government's official web portal to all federal, state and local government web resources and services.